User: anonymous   Login
Location: Unspecified
(22.6800°N, 112.2000°E)
Time: 11:52:41
(UTC+08:00)
Language:

Envisat - Orbit

View from above orbital plane
View from above orbital plane
View from above satellite
View from above satellite

Ground track
Ground track

The orbit data is extracted from the following two-line orbital elements,

1 27386U 02009A   24106.90472095  .00000345  00000-0  12655-3 0  9990
2 27386  98.2768  70.1787 0001246  81.9108 298.7382 14.38539553159626
Epoch (UTC): 15 April 2024 21:42:47
Eccentricity: 0.0001246
inclination: 98.2768°
perigee height: 762 km
apogee height: 764 km
right ascension of ascending node: 70.1787°
argument of perigee: 81.9108°
revolutions per day: 14.38539553
mean anomaly at epoch: 298.7382°
orbit number at epoch: 15962

The dashed part of the orbit path shows where the satellite is in the earth's shadow,  

DLR